When you browse on this site, cookies collect data to enhance your experience and personalize the content and advertising you see.
Visit our Privacy Policy to learn more. By continuing to use the site, you agree to this use of cookies and data.
  • In Deutschland
  • Länderverzeichnis
  • Für 7 Tage
  • Wassertemperatur
  • Satellitenkarten
  • Wetterkarte
  • Widgets
  • user-avatar
    Anmelden

    Stündliche Wetter Lushun

    Heute, 12 Dezember, Mittwoch

    Zeit Temperatur Niederschläge Wind Luftdruck Luftfeuchtigkeit
    00:00 -5°C° 0 mm 6 m/S 775 mmHg 47%
    01:00 -6°C° 0 mm 7 m/S 775 mmHg 47%
    02:00 -6°C° 0 mm 7 m/S 775 mmHg 47%
    03:00 -5°C° 0 mm 6 m/S 775 mmHg 46%
    04:00 -5°C° 0 mm 6 m/S 775 mmHg 46%
    05:00 -5°C° 0 mm 5 m/S 775 mmHg 46%
    06:00 -5°C° 0 mm 5 m/S 775 mmHg 45%
    07:00 -4°C° 0 mm 4 m/S 775 mmHg 44%
    08:00 -4°C° 0 mm 4 m/S 775 mmHg 43%
    09:00 -3°C° 0 mm 4 m/S 775 mmHg 44%
    10:00 -2°C° 0 mm 5 m/S 774 mmHg 45%
    11:00 -2°C° 0 mm 6 m/S 774 mmHg 46%
    12:00 -2°C° 0 mm 7 m/S 774 mmHg 46%
    13:00 -2°C° 0 mm 7 m/S 773 mmHg 46%
    14:00 -1°C° 0 mm 8 m/S 772 mmHg 45%
    15:00 -1°C° 0 mm 9 m/S 772 mmHg 48%
    16:00 -1°C° 0 mm 9 m/S 772 mmHg 51%
    17:00 -1°C° 0 mm 9 m/S 772 mmHg 53%
    18:00 -2°C° 0 mm 10 m/S 771 mmHg 54%
    19:00 -2°C° 0 mm 10 m/S 771 mmHg 54%
    20:00 -2°C° 0 mm 10 m/S 771 mmHg 55%
    21:00 -2°C° 0 mm 10 m/S 771 mmHg 52%
    22:00 -2°C° 0 mm 10 m/S 771 mmHg 48%
    23:00 0°C° 0 mm 10 m/S 771 mmHg 45%

    Morgen, 13 Dezember, Donnerstag

    Zeit Temperatur Niederschläge Wind Luftdruck Luftfeuchtigkeit
    00:00 -2°C° 0 mm 10 m/S 772 mmHg 44%
    01:00 -1°C° 0 mm 9 m/S 772 mmHg 43%
    02:00 -1°C° 0 mm 9 m/S 772 mmHg 42%
    03:00 -3°C° 0 mm 9 m/S 772 mmHg 43%
    04:00 -3°C° 0 mm 9 m/S 772 mmHg 45%
    05:00 -4°C° 0 mm 9 m/S 772 mmHg 46%
    06:00 -4°C° 0 mm 9 m/S 773 mmHg 47%
    07:00 -4°C° 0 mm 9 m/S 773 mmHg 48%
    08:00 -4°C° 0 mm 10 m/S 774 mmHg 49%
    09:00 -4°C° 0 mm 10 m/S 774 mmHg 48%
    10:00 -4°C° 0 mm 10 m/S 775 mmHg 48%
    11:00 -4°C° 0 mm 10 m/S 775 mmHg 48%
    12:00 -4°C° 0 mm 9 m/S 775 mmHg 49%
    13:00 -5°C° 0 mm 9 m/S 775 mmHg 49%
    14:00 -5°C° 0 mm 9 m/S 775 mmHg 50%
    15:00 -5°C° 0 mm 9 m/S 776 mmHg 49%
    16:00 -5°C° 0 mm 8 m/S 776 mmHg 49%
    17:00 -5°C° 0 mm 8 m/S 776 mmHg 49%
    18:00 -6°C° 0 mm 8 m/S 777 mmHg 48%
    19:00 -6°C° 0 mm 7 m/S 777 mmHg 48%
    20:00 -6°C° 0 mm 7 m/S 777 mmHg 48%
    21:00 -6°C° 0 mm 7 m/S 778 mmHg 48%
    22:00 -5°C° 0 mm 6 m/S 778 mmHg 48%
    23:00 -5°C° 0 mm 6 m/S 778 mmHg 49%

    übermorgen, 14 Dezember, Freitag

    Zeit Temperatur Niederschläge Wind Luftdruck Luftfeuchtigkeit
    00:00 -5°C° 0 mm 6 m/S 778 mmHg 49%
    01:00 -5°C° 0 mm 6 m/S 778 mmHg 49%
    02:00 -5°C° 0 mm 6 m/S 778 mmHg 50%
    03:00 -5°C° 0 mm 5 m/S 778 mmHg 50%
    04:00 -5°C° 0 mm 5 m/S 778 mmHg 50%
    05:00 -5°C° 0 mm 5 m/S 778 mmHg 50%
    06:00 -5°C° 0 mm 4 m/S 778 mmHg 50%
    07:00 -5°C° 0 mm 4 m/S 778 mmHg 50%
    08:00 -5°C° 0 mm 3 m/S 778 mmHg 50%
    09:00 -4°C° 0 mm 3 m/S 778 mmHg 48%
    10:00 -3°C° 0 mm 2 m/S 778 mmHg 47%
    11:00 0°C° 0 mm 1 m/S 778 mmHg 45%
    12:00 0°C° 0 mm 1 m/S 777 mmHg 46%
    13:00 -2°C° 0 mm 2 m/S 777 mmHg 47%
    14:00 -1°C° 0 mm 2 m/S 776 mmHg 48%
    15:00 -1°C° 0 mm 2 m/S 776 mmHg 50%
    16:00 -1°C° 0 mm 3 m/S 776 mmHg 53%
    17:00 0°C° 0 mm 3 m/S 776 mmHg 55%
    18:00 -1°C° 0 mm 4 m/S 776 mmHg 54%
    19:00 0°C° 0 mm 4 m/S 776 mmHg 54%
    20:00 0°C° 0 mm 4 m/S 776 mmHg 54%
    21:00 0°C° 0 mm 5 m/S 775 mmHg 56%
    22:00 +1°C° 0 mm 5 m/S 775 mmHg 58%
    23:00 +1°C° 0 mm 6 m/S 775 mmHg 60%

    15 Dezember, Samstag

    Zeit Temperatur Niederschläge Wind Luftdruck Luftfeuchtigkeit
    00:00 +1°C° 0 mm 6 m/S 775 mmHg 61%
    01:00 +1°C° 0 mm 6 m/S 774 mmHg 62%
    02:00 0°C° 0 mm 7 m/S 774 mmHg 63%
    03:00 0°C° 0 mm 7 m/S 774 mmHg 64%
    04:00 0°C° 0 mm 7 m/S 773 mmHg 66%
    05:00 0°C° 0 mm 7 m/S 773 mmHg 67%
    06:00 +2°C° 0 mm 7 m/S 773 mmHg 66%
    07:00 +2°C° 0 mm 7 m/S 772 mmHg 65%
    08:00 +2°C° 0 mm 7 m/S 772 mmHg 64%
    09:00 +2°C° 0 mm 7 m/S 772 mmHg 62%
    10:00 +2°C° 0 mm 8 m/S 772 mmHg 60%
    11:00 +2°C° 0 mm 8 m/S 772 mmHg 58%
    12:00 +4°C° 0 mm 8 m/S 771 mmHg 57%
    13:00 +4°C° 0 mm 8 m/S 770 mmHg 57%
    14:00 +4°C° 0 mm 8 m/S 769 mmHg 57%
    15:00 +4°C° 0 mm 8 m/S 769 mmHg 59%
    16:00 +2°C° 0 mm 8 m/S 769 mmHg 61%
    17:00 +2°C° 0 mm 8 m/S 769 mmHg 63%
    18:00 +2°C° 0 mm 8 m/S 769 mmHg 65%
    19:00 +2°C° 0 mm 8 m/S 769 mmHg 66%
    20:00 +2°C° 0 mm 8 m/S 769 mmHg 67%
    21:00 +2°C° 0 mm 8 m/S 769 mmHg 69%
    22:00 +2°C° 0 mm 8 m/S 769 mmHg 70%
    23:00 +2°C° 0 mm 8 m/S 768 mmHg 72%

    16 Dezember, Sonntag

    Zeit Temperatur Niederschläge Wind Luftdruck Luftfeuchtigkeit
    00:00 +3°C° 0 mm 7 m/S 768 mmHg 68%
    01:00 +3°C° 0 mm 7 m/S 768 mmHg 64%
    02:00 +3°C° 0 mm 7 m/S 767 mmHg 60%
    03:00 +2°C° 0 mm 6 m/S 767 mmHg 58%
    04:00 +2°C° 0 mm 6 m/S 766 mmHg 56%
    05:00 +2°C° 0 mm 5 m/S 766 mmHg 54%
    06:00 +3°C° 0 mm 4 m/S 766 mmHg 53%
    07:00 +1°C° 0 mm 4 m/S 766 mmHg 52%
    08:00 +2°C° 0 mm 3 m/S 766 mmHg 51%
    09:00 +3°C° 0 mm 4 m/S 766 mmHg 49%
    10:00 +3°C° 0 mm 4 m/S 766 mmHg 46%
    11:00 +4°C° 0 mm 4 m/S 766 mmHg 43%
    12:00 +3°C° 0 mm 5 m/S 765 mmHg 43%
    13:00 +3°C° 0 mm 5 m/S 765 mmHg 44%
    14:00 +4°C° 0 mm 6 m/S 764 mmHg 44%
    15:00 +3°C° 0 mm 7 m/S 764 mmHg 44%
    16:00 +3°C° 0 mm 7 m/S 764 mmHg 45%
    17:00 +3°C° 0 mm 7 m/S 765 mmHg 45%
    18:00 +2°C° 0 mm 8 m/S 765 mmHg 45%
    19:00 +2°C° 0 mm 8 m/S 765 mmHg 45%
    20:00 +2°C° 0 mm 9 m/S 765 mmHg 44%
    21:00 +2°C° 0 mm 9 m/S 765 mmHg 43%
    22:00 +2°C° 0 mm 8 m/S 765 mmHg 42%
    23:00 +2°C° 0 mm 8 m/S 765 mmHg 41%

    17 Dezember, Montag

    Zeit Temperatur Niederschläge Wind Luftdruck Luftfeuchtigkeit
    00:00 +1°C° 0 mm 8 m/S 765 mmHg 42%
    01:00 +2°C° 0 mm 7 m/S 765 mmHg 42%
    02:00 0°C° 0 mm 7 m/S 765 mmHg 43%
    03:00 0°C° 0 mm 7 m/S 765 mmHg 43%
    04:00 +1°C° 0 mm 6 m/S 765 mmHg 43%
    05:00 0°C° 0 mm 5 m/S 765 mmHg 42%
    06:00 0°C° 0 mm 5 m/S 766 mmHg 42%
    07:00 0°C° 0 mm 4 m/S 766 mmHg 41%
    08:00 0°C° 0 mm 4 m/S 766 mmHg 41%
    09:00 +1°C° 0 mm 4 m/S 766 mmHg 38%
    10:00 +1°C° 0 mm 4 m/S 766 mmHg 36%
    11:00 +3°C° 0 mm 4 m/S 766 mmHg 33%
    12:00 +2°C° 0 mm 5 m/S 766 mmHg 35%
    13:00 +2°C° 0 mm 6 m/S 765 mmHg 37%
    14:00 +3°C° 0 mm 6 m/S 765 mmHg 39%
    15:00 +2°C° 0 mm 7 m/S 765 mmHg 40%
    16:00 +2°C° 0 mm 7 m/S 765 mmHg 41%
    17:00 +2°C° 0 mm 7 m/S 764 mmHg 42%
    18:00 +2°C° 0 mm 8 m/S 764 mmHg 44%
    19:00 +2°C° 0 mm 8 m/S 764 mmHg 45%
    20:00 +2°C° 0 mm 9 m/S 764 mmHg 47%
    21:00 +2°C° 0 mm 8 m/S 764 mmHg 48%
    22:00 +2°C° 0 mm 8 m/S 764 mmHg 49%
    23:00 +4°C° 0 mm 8 m/S 764 mmHg 50%
    Mehr zeigen